Weather in Sabirabad

Azerbaijan     39˚59′25″N   48˚27′47″E
temp.,
°C
wind,
m/s
gust,
m/s
humid.,
%
clouds,
%
prec.,
mm/h
press.,
hPa
HPBL,
m
28 november, sat
sat2801:00+6˚nne34791 0.0 103347
04:00+6˚n33811 0.0 103232
07:00+4˚nw228828 0.0 103222
10:00+8˚wnw337125 0.0 1032214
13:00+11˚nnw33554 0.0 1030432
16:00+12˚s125436 0.0 1029913
19:00+9˚se337413 0.0 102954
22:00+9˚se127556 0.0 103077
29 november, sun
sun2901:00+9˚n1177100 0.1 102929
04:00+9˚wnw2373100 0.1 1029107
07:00+8˚wnw3565100 0.0 1028202
10:00+8˚wnw3463100 0.1 1029212
13:00+11˚wsw2253100 0.0 1027457
16:00+11˚sse0053100 0.0 1026453
19:00+10˚se1262100 0.0 102726
22:00+10˚e1169100 0.0 102822
30 november, mon
mon3001:00+9˚w2270100 0.1 102769
04:00+8˚wnw1274100 0.4 1026123
07:00+8˚nw1184100 0.8 102677
10:00+8˚ese3487100 1.3 1027274
13:00+8˚ese4676100 0.2 1026374
16:00+9˚ese337293 0.2 1025484
19:00+7˚ne128726 0.0 102624
22:00+8˚e278059 0.0 1026504
1 december, tue
tue101:00+6˚e388483 0.0 1025330
04:00+6˚ese588379 0.0 1025267
07:00+6˚ese348294 0.0 1025130
10:00+8˚ene237794 0.0 1025273
13:00+9˚ene017098 0.0 1024601
16:00+10˚ene116489 0.0 1023706
19:00+8˚se117948 0.0 102522
22:00+9˚ne117555 0.0 102622
2 december, wed
wed201:00+7˚nne237955 0.0 102532
04:00+6˚n238342 0.0 102524
07:00+6˚nnw238354 0.0 102654
10:00+8˚nnw227464 0.0 1026153
13:00+11˚nnw2259100 0.0 1025560
16:00+12˚e1256100 0.0 1024728
19:00+11˚e3773100 0.0 1025549
22:00+10˚e5778100 0.1 1027625